GW4603 Weather Reports


time (UTC)temp
F
wind
direction
speed
knots
gust
knots
rain 1hr
in
rain 24hr
in
rain mn
in
humidity
%
barometer
mb
20260510204709 73 306 1.7 5.2 0.00 0.00 0.00 45 1016.3
20260510204206 73 318 9.6 13.9 0.00 0.00 0.00 43 1016.4
20260510203703 73 243 0.0 5.2 0.00 0.00 0.00 50 1016.6
20260510203200 73 283 2.6 7.8 0.00 0.00 0.00 46 1016.5
20260510202659 73 318 4.3 5.2 0.00 0.00 0.00 47 1016.7
20260510202154 73 263 1.7 3.5 0.00 0.00 0.00 46 1016.4
20260510201652 72 338 2.6 2.6 0.00 0.00 0.00 47 1016.7
20260510201149 70 314 1.7 3.5 0.00 0.00 0.00 50 1016.8
20260510200645 70 314 2.6 2.6 0.00 0.00 0.00 49 1016.7
20260510200143 70 314 0.0 1.7 0.00 0.00 0.00 49 1016.7
20260510195640 69 338 0.0 0.9 0.00 0.00 0.00 50 1016.7
20260510195137 69 302 0.9 3.5 0.00 0.00 0.00 50 1017.0
20260510194636 69 83 1.7 2.6 0.00 0.00 0.00 52 1017.1
20260510194133 69 49 0.9 3.5 0.00 0.00 0.00 52 1017.1
20260510193628 69 262 0.0 3.5 0.00 0.00 0.00 52 1017.0
20260510193124 70 231 0.9 3.5 0.00 0.00 0.00 49 1017.2
20260510192619 70 65 2.6 7.8 0.00 0.00 0.00 52 1017.0
20260510192116 71 299 0.9 1.7 0.00 0.00 0.00 51 1017.1
20260510191611 71 319 0.0 2.6 0.00 0.00 0.00 49 1016.8
20260510191108 71 317 2.6 5.2 0.00 0.00 0.00 48 1016.8
20260510190606 72 288 3.5 7.0 0.00 0.00 0.00 47 1017.0
20260510190103 72 297 2.6 5.2 0.00 0.00 0.00 47 1016.7
20260510185559 72 94 1.7 5.2 0.00 0.00 0.00 48 1016.7
20260510185057 71 210 2.6 3.5 0.00 0.00 0.00 49 1016.8
20260510184554 71 326 0.9 6.1 0.00 0.00 0.00 48 1016.7
20260510184049 71 325 0.9 7.0 0.00 0.00 0.00 47 1016.7
20260510183545 72 322 2.6 5.2 0.00 0.00 0.00 46 1016.5
20260510183041 72 335 2.6 5.2 0.00 0.00 0.00 47 1016.6
20260510182538 74 245 1.7 8.7 0.00 0.00 0.00 48 1016.6
20260510182032 74 224 7.0 7.8 0.00 0.00 0.00 43 1016.5
20260510181531 73 160 3.5 9.6 0.00 0.00 0.00 44 1016.7
20260510181026 72 337 2.6 13.9 0.00 0.00 0.00 46 1016.8
20260510180523 73 242 1.7 7.0 0.00 0.00 0.00 46 1016.7
20260510180021 74 228 3.5 5.2 0.00 0.00 0.00 46 1016.7
20260510175516 73 152 7.8 8.7 0.00 0.00 0.00 45 1016.8
20260510175012 74 332 3.5 5.2 0.00 0.00 0.00 46 1016.8
20260510174510 73 263 3.5 6.1 0.00 0.00 0.00 44 1017.1
20260510174007 73 223 3.5 6.1 0.00 0.00 0.00 46 1016.7
20260510173502 73 350 2.6 11.3 0.00 0.00 0.00 45 1017.0
20260510172959 73 329 4.3 7.0 0.00 0.00 0.00 46 1017.2
20260510172455 73 323 3.5 6.1 0.00 0.00 0.00 48 1017.1
20260510171952 73 341 2.6 3.5 0.00 0.00 0.00 44 1017.0
20260510171449 72 268 4.3 5.2 0.00 0.00 0.00 47 1017.3
20260510170945 73 303 3.5 7.8 0.00 0.00 0.00 48 1017.2
20260510170442 73 310 0.9 3.5 0.00 0.00 0.00 53 1017.4
20260510165938 72 147 4.3 6.1 0.00 0.00 0.00 52 1017.5
20260510165434 72 305 1.7 7.0 0.00 0.00 0.00 48 1017.3
20260510164931 72 195 0.9 6.1 0.00 0.00 0.00 52 1017.4
20260510164428 71 330 2.6 7.0 0.00 0.00 0.00 49 1017.5
20260510163922 71 308 2.6 5.2 0.00 0.00 0.00 50 1017.5
20260510163419 71 85 0.9 2.6 0.00 0.00 0.00 52 1017.7
20260510162919 71 320 5.2 7.8 0.00 0.00 0.00 49 1017.5
20260510162417 71 1 0.9 7.0 0.00 0.00 0.00 51 1017.5
20260510161912 72 240 0.0 3.5 0.00 0.00 0.00 55 1017.7
20260510161408 69 3 0.9 2.6 0.00 0.00 0.00 51 1017.7
20260510160906 69 231 4.3 11.3 0.00 0.00 0.00 50 1017.8
20260510160403 69 300 1.7 3.5 0.00 0.00 0.00 52 1017.8
20260510155901 69 314 7.8 9.6 0.00 0.00 0.00 50 1017.8
20260510155359 69 329 1.7 9.6 0.00 0.00 0.00 52 1017.8
20260510154854 69 88 1.7 3.5 0.00 0.00 0.00 53 1017.7
20260510154351 69 266 7.0 11.3 0.00 0.00 0.00 53 1017.8
20260510153845 68 330 2.6 6.1 0.00 0.00 0.00 54 1017.8
20260510153341 68 349 1.7 9.6 0.00 0.00 0.00 55 1017.8
20260510152838 68 271 1.7 7.8 0.00 0.00 0.00 58 1017.6
20260510152336 67 178 3.5 7.0 0.00 0.00 0.00 56 1017.7
20260510151831 69 146 3.5 7.8 0.00 0.00 0.00 56 1017.7
20260510151330 69 109 1.7 6.1 0.00 0.00 0.00 59 1017.7
20260510150825 68 202 5.2 6.1 0.00 0.00 0.00 59 1017.6
20260510150321 68 222 4.3 7.0 0.00 0.00 0.00 58 1017.6
20260510145817 68 321 1.7 5.2 0.00 0.00 0.00 58 1017.7
20260510145314 69 303 2.6 3.5 0.00 0.00 0.00 58 1017.7
20260510144810 68 356 0.0 2.6 0.00 0.00 0.00 59 1017.6
20260510144308 67 324 1.7 5.2 0.00 0.00 0.00 63 1017.6
20260510143807 66 143 3.5 6.1 0.00 0.00 0.00 61 1017.5
20260510143303 66 325 0.9 1.7 0.00 0.00 0.00 63 1017.4
20260510142800 66 303 1.7 3.5 0.00 0.00 0.00 64 1017.3
20260510142257 65 344 0.0 2.6 0.00 0.00 0.00 66 1017.4
20260510141754 65 109 0.0 2.6 0.00 0.00 0.00 68 1017.3
20260510141252 65 311 2.6 2.6 0.00 0.00 0.00 68 1017.5
20260510140748 63 108 0.0 2.6 0.00 0.00 0.00 68 1017.6
20260510140243 64 313 1.7 2.6 0.00 0.00 0.00 67 1017.4
20260510135738 63 314 0.9 5.2 0.00 0.00 0.00 69 1017.4
20260510135233 62 126 3.5 3.5 0.00 0.00 0.00 69 1017.5
20260510134731 63 347 0.9 2.6 0.00 0.00 0.00 69 1017.4
20260510134228 63 43 0.0 1.7 0.00 0.00 0.00 70 1017.4
20260510133724 62 331 0.0 3.5 0.00 0.00 0.00 73 1017.6
20260510133220 62 298 3.5 3.5 0.00 0.00 0.00 70 1017.7
20260510132716 61 296 3.5 5.2 0.00 0.00 0.00 72 1017.6
20260510132214 61 238 2.6 3.5 0.00 0.00 0.00 73 1017.6
20260510131711 61 233 2.6 6.1 0.00 0.00 0.00 74 1017.5
20260510131209 60 219 0.0 3.5 0.00 0.00 0.00 74 1017.5
20260510130705 61 210 1.7 1.7 0.00 0.00 0.00 78 1017.5
20260510130202 60 217 3.5 7.8 0.00 0.00 0.00 76 1017.5
20260510125658 60 2 0.9 3.5 0.00 0.00 0.00 76 1017.6
20260510125154 60 39 0.0 0.0 0.00 0.00 0.00 80 1017.5
20260510124651 60 324 0.0 0.0 0.00 0.00 0.00 81 1017.5
20260510124148 58 55 0.9 2.6 0.00 0.00 0.00 81 1017.6
20260510123644 57 42 0.0 3.5 0.00 0.00 0.00 85 1017.5
20260510123140 55 100 0.9 1.7 0.00 0.00 0.00 89 1017.2
20260510122636 53 80 1.7 2.6 0.00 0.00 0.00 99 1017.4
20260510122132 51 277 0.0 1.7 0.00 0.00 0.00 99 1017.4
20260510121629 49 53 0.0 0.0 0.00 0.00 0.00 99 1017.2
20260510121126 48 308 0.0 0.0 0.00 0.00 0.00 99 1017.2
20260510120624 47 346 0.0 0.0 0.00 0.00 0.00 99 1017.2
20260510120119 46 346 0.0 0.0 0.00 0.00 0.00 99 1017.2
20260510115616 45 346 0.0 0.0 0.00 0.00 0.00 99 1016.8
20260510115114 44 345 0.0 0.0 0.00 0.00 0.00 99 1017.0
20260510114609 43 347 0.0 0.9 0.00 0.00 0.00 99 1017.0
20260510114106 43 337 0.0 0.0 0.00 0.00 0.00 99 1016.7
20260510113601 42 337 0.0 0.0 0.00 0.00 0.00 99 1016.7
20260510113059 42 289 0.0 0.0 0.00 0.00 0.00 99 1016.6
20260510112555 41 289 0.0 0.0 0.00 0.00 0.00 99 1016.5
20260510112052 41 289 0.0 0.0 0.00 0.00 0.00 99 1016.5
20260510111548 41 290 0.0 0.0 0.00 0.00 0.00 99 1016.6
20260510111044 41 290 0.0 0.0 0.00 0.00 0.00 99 1016.4
20260510110540 41 288 0.0 0.0 0.00 0.00 0.00 99 1016.3
20260510110037 41 289 0.0 0.0 0.00 0.00 0.00 99 1016.4
20260510105532 40 290 0.0 0.9 0.00 0.00 0.00 99 1016.3
20260510105027 40 278 0.0 0.0 0.00 0.00 0.00 99 1016.3
20260510104524 40 278 0.0 0.0 0.00 0.00 0.00 99 1016.2
20260510104020 40 278 0.0 0.0 0.00 0.00 0.00 99 1016.1
20260510103518 40 278 0.0 0.0 0.00 0.00 0.00 99 1016.2
20260510103014 40 278 0.0 0.0 0.00 0.00 0.00 99 1016.0
20260510102510 40 285 0.0 0.9 0.00 0.00 0.00 99 1016.0
20260510102006 40 262 0.0 0.0 0.00 0.00 0.00 99 1016.0
20260510101504 40 262 0.0 0.0 0.00 0.00 0.00 99 1015.7
20260510101002 40 262 0.0 0.0 0.00 0.00 0.00 99 1015.8
20260510100458 40 262 0.0 0.0 0.00 0.00 0.00 99 1015.7
20260510095954 40 262 0.0 0.0 0.00 0.00 0.00 99 1015.7
20260510095450 40 262 0.0 0.0 0.00 0.00 0.00 99 1015.6
20260510094949 40 262 0.0 0.0 0.00 0.00 0.00 99 1015.5
20260510094445 40 262 0.0 0.0 0.00 0.00 0.00 99 1015.5
20260510093941 40 262 0.0 0.0 0.00 0.00 0.00 99 1015.3
20260510093436 40 262 0.0 0.0 0.00 0.00 0.00 99 1015.7
20260510092933 40 262 0.0 0.0 0.00 0.00 0.00 99 1015.6
20260510092431 40 262 0.0 0.0 0.00 0.00 0.00 99 1015.5
20260510091930 40 262 0.0 0.0 0.00 0.00 0.00 99 1015.3
20260510091428 40 262 0.0 0.0 0.00 0.00 0.00 99 1015.2
20260510090924 40 262 0.0 0.0 0.00 0.00 0.00 99 1015.1
20260510090420 40 262 0.0 0.0 0.00 0.00 0.00 99 1015.0
20260510085916 40 262 0.0 0.0 0.00 0.00 0.00 99 1015.1
20260510085412 40 262 0.0 0.0 0.00 0.00 0.00 99 1015.0
20260510084907 40 262 0.0 0.0 0.00 0.00 0.00 99 1014.9
20260510084405 41 262 0.0 0.0 0.00 0.00 0.00 99 1015.0
20260510083901 41 262 0.0 0.0 0.00 0.00 0.00 99 1015.0
20260510083358 41 262 0.0 0.0 0.00 0.00 0.00 99 1014.9
20260510082853 41 262 0.0 0.0 0.00 0.00 0.00 99 1014.9
20260510082351 41 262 0.0 0.0 0.00 0.00 0.00 99 1014.6
20260510081849 41 262 0.0 0.0 0.00 0.00 0.00 99 1014.7
20260510081345 41 262 0.0 0.0 0.00 0.00 0.00 99 1014.7
20260510080843 41 262 0.0 0.0 0.00 0.00 0.00 99 1014.8
20260510080336 41 262 0.0 0.0 0.00 0.00 0.00 99 1014.7
20260510075834 42 262 0.0 0.0 0.00 0.00 0.00 99 1014.6
20260510075331 42 262 0.0 0.0 0.00 0.00 0.00 99 1014.6
20260510074828 42 262 0.0 0.0 0.00 0.00 0.00 99 1014.7
20260510074325 42 262 0.0 0.0 0.00 0.00 0.00 99 1014.6
20260510073821 42 262 0.0 0.0 0.00 0.00 0.00 99 1014.8
20260510073317 42 262 0.0 0.0 0.00 0.00 0.00 99 1014.6
20260510072813 42 262 0.0 0.0 0.00 0.00 0.00 99 1014.5
20260510072310 42 262 0.0 0.0 0.00 0.00 0.00 99 1014.6
20260510071807 42 262 0.0 0.0 0.00 0.00 0.00 99 1014.7
20260510071303 42 262 0.0 0.0 0.00 0.00 0.00 99 1014.7
20260510070802 42 262 0.0 0.0 0.00 0.00 0.00 99 1014.5
20260510070259 42 262 0.0 0.0 0.00 0.00 0.00 99 1014.7
20260510065758 42 262 0.0 0.0 0.00 0.00 0.00 99 1014.5
20260510065255 42 262 0.0 0.0 0.00 0.00 0.00 99 1014.5
20260510064752 42 262 0.0 0.0 0.00 0.00 0.00 99 1014.5
20260510064250 42 262 0.0 0.0 0.00 0.00 0.00 99 1014.4
20260510063745 43 262 0.0 0.0 0.00 0.00 0.00 99 1014.6
20260510063242 43 262 0.0 0.0 0.00 0.00 0.00 99 1014.5
20260510062739 43 262 0.0 0.0 0.00 0.00 0.00 99 1014.5
20260510062234 43 262 0.0 0.0 0.00 0.00 0.00 99 1014.5
20260510061730 43 262 0.0 0.0 0.00 0.00 0.00 99 1014.5
20260510061227 43 262 0.0 0.0 0.00 0.00 0.00 99 1014.3
20260510060724 43 262 0.0 0.0 0.00 0.00 0.00 99 1014.5
20260510060220 43 262 0.0 0.0 0.00 0.00 0.00 99 1014.6
20260510055717 43 262 0.0 0.0 0.00 0.00 0.00 99 1014.4
20260510055215 43 262 0.0 0.0 0.00 0.00 0.00 99 1014.7
20260510054710 43 262 0.0 0.0 0.00 0.00 0.00 99 1014.6
20260510054206 44 262 0.0 0.0 0.00 0.00 0.00 99 1014.7
20260510053706 44 262 0.0 0.0 0.00 0.00 0.00 99 1014.7
20260510053202 44 262 0.0 0.0 0.00 0.00 0.00 99 1014.6
20260510052658 44 262 0.0 0.0 0.00 0.00 0.00 99 1014.4
20260510052154 44 262 0.0 0.0 0.00 0.00 0.00 99 1014.5
20260510051650 44 262 0.0 0.0 0.00 0.00 0.00 99 1014.5
20260510051147 44 262 0.0 0.0 0.00 0.00 0.00 99 1014.7
20260510050644 44 262 0.0 0.0 0.00 0.00 0.00 99 1014.5
20260510050142 44 262 0.0 0.0 0.00 0.00 0.00 99 1014.4
20260510045638 45 262 0.0 0.0 0.00 0.00 0.00 99 1014.7
20260510045134 45 262 0.0 0.0 0.00 0.00 0.00 99 1014.6
20260510044631 45 262 0.0 0.0 0.00 0.00 0.00 99 1014.7
20260510044128 45 262 0.0 0.0 0.00 0.00 0.00 99 1014.6
20260510043624 45 263 0.0 0.0 0.00 0.00 0.00 99 1014.6
20260510043121 46 263 0.0 0.0 0.00 0.00 0.00 98 1014.5
20260510042618 46 263 0.0 0.0 0.00 0.00 0.00 98 1014.5
20260510042114 46 263 0.0 0.0 0.00 0.00 0.00 98 1014.6
20260510041606 46 263 0.0 0.0 0.00 0.00 0.00 98 1014.4
20260510041103 46 263 0.0 0.0 0.00 0.00 0.00 98 1014.3
20260510040600 46 263 0.0 0.0 0.00 0.00 0.00 98 1014.3
20260510040056 46 263 0.0 0.0 0.00 0.00 0.00 98 1014.3
20260510035552 46 263 0.0 0.0 0.00 0.00 0.00 98 1014.5
20260510035052 46 263 0.0 0.0 0.00 0.00 0.00 98 1014.5
20260510034550 47 263 0.0 0.0 0.00 0.00 0.00 98 1014.5
20260510034047 47 263 0.0 0.0 0.00 0.00 0.00 97 1014.4
20260510033543 47 263 0.0 0.0 0.00 0.00 0.00 97 1014.4
20260510033041 47 263 0.0 0.0 0.00 0.00 0.00 97 1014.4
20260510032538 47 263 0.0 0.0 0.00 0.00 0.00 97 1014.3
20260510032033 47 263 0.0 0.0 0.00 0.00 0.00 97 1014.3
20260510031527 47 263 0.0 0.0 0.00 0.00 0.00 97 1014.3
20260510031023 47 263 0.0 0.0 0.00 0.00 0.00 97 1014.4
20260510030519 47 263 0.0 0.0 0.00 0.00 0.00 96 1014.5
20260510030017 47 263 0.0 0.0 0.00 0.00 0.00 96 1014.4
20260510025514 48 263 0.0 0.0 0.00 0.00 0.00 96 1014.5
20260510025012 48 263 0.0 0.0 0.00 0.00 0.00 96 1014.5
20260510024508 48 263 0.0 0.0 0.00 0.00 0.00 96 1014.3
20260510024004 48 263 0.0 0.0 0.00 0.00 0.00 95 1014.6
20260510023500 48 263 0.0 0.0 0.00 0.00 0.00 95 1014.4
20260510022957 48 263 0.0 0.0 0.00 0.00 0.00 95 1014.4
20260510022456 49 263 0.0 0.0 0.00 0.00 0.00 94 1014.3
20260510021955 49 263 0.0 0.0 0.00 0.00 0.00 94 1014.1
20260510021453 49 263 0.0 0.0 0.00 0.00 0.00 94 1014.1
20260510020950 49 263 0.0 0.0 0.00 0.00 0.00 93 1014.0
20260510020445 49 263 0.0 0.0 0.00 0.00 0.00 93 1013.7
20260510015940 49 263 0.0 0.0 0.00 0.00 0.00 92 1013.6
20260510015436 50 263 0.0 0.0 0.00 0.00 0.00 92 1013.6
20260510014931 50 263 0.0 0.0 0.00 0.00 0.00 92 1013.5
20260510014429 50 263 0.0 0.0 0.00 0.00 0.00 91 1013.3
20260510013926 50 263 0.0 0.0 0.00 0.00 0.00 90 1013.3
20260510013420 51 263 0.0 0.0 0.00 0.00 0.00 90 1013.2
20260510012916 51 263 0.0 0.9 0.00 0.00 0.00 90 1013.1
20260510012411 51 263 0.0 0.0 0.00 0.00 0.00 89 1013.1
20260510011906 51 263 0.0 0.0 0.00 0.00 0.00 89 1013.1
20260510011401 52 263 0.0 0.0 0.00 0.00 0.00 87 1013.2
20260510010858 52 263 0.0 0.0 0.00 0.00 0.00 87 1013.0
20260510010356 52 262 0.0 0.0 0.00 0.00 0.00 87 1012.8
20260510005852 53 262 0.0 0.0 0.00 0.00 0.00 85 1013.0
20260510005348 53 262 0.0 0.0 0.00 0.00 0.00 85 1012.8
20260510004846 54 262 0.0 0.0 0.00 0.00 0.00 85 1012.7
20260510004344 54 262 0.0 0.0 0.00 0.00 0.00 82 1012.7
20260510003841 55 262 0.0 0.0 0.00 0.00 0.00 82 1012.7
20260510003338 55 262 0.0 0.0 0.00 0.00 0.00 79 1012.6
20260510002836 56 262 0.0 0.9 0.00 0.00 0.00 80 1012.6
20260510002334 56 262 0.0 0.0 0.00 0.00 0.00 77 1012.6
20260510001831 57 256 0.0 0.0 0.00 0.00 0.00 74 1012.6
20260510001329 57 255 0.0 0.0 0.00 0.00 0.00 74 1012.4
20260510000824 58 137 0.0 0.9 0.00 0.00 0.00 73 1012.3
20260510000321 59 264 0.0 0.9 0.00 0.00 0.00 69 1012.2
20260509235819 60 229 0.9 1.7 0.00 0.00 0.00 66 1012.2
20260509235315 60 183 0.0 0.0 0.00 0.00 0.00 66 1012.0
20260509234811 61 183 0.0 0.0 0.00 0.00 0.00 64 1012.2
20260509234308 61 135 0.0 0.0 0.00 0.00 0.00 63 1011.9
20260509233807 62 302 0.0 0.9 0.00 0.00 0.00 64 1012.0
20260509233303 62 233 1.7 1.7 0.00 0.00 0.00 63 1012.0
20260509232759 63 34 0.9 1.7 0.00 0.00 0.00 61 1012.1
20260509232257 63 294 1.7 2.6 0.00 0.00 0.00 60 1012.0
20260509231753 63 274 0.9 1.7 0.00 0.00 0.00 60 1012.0
20260509231250 63 157 0.9 3.5 0.00 0.00 0.00 59 1011.9
20260509230748 63 274 0.9 2.6 0.00 0.00 0.00 59 1011.8
20260509230245 63 297 0.9 2.6 0.00 0.00 0.00 58 1011.7
20260509225745 63 134 3.5 6.1 0.00 0.00 0.00 59 1011.8
20260509225241 63 338 1.7 5.2 0.00 0.00 0.00 58 1011.6
20260509224737 63 314 2.6 2.6 0.00 0.00 0.00 58 1011.9
20260509224235 63 312 1.7 3.5 0.00 0.00 0.00 58 1011.9
20260509223731 63 175 1.7 3.5 0.00 0.00 0.00 57 1011.8
20260509223228 63 294 3.5 5.2 0.00 0.00 0.00 58 1012.1
20260509222725 64 196 4.3 7.0 0.00 0.00 0.00 56 1012.0
20260509222220 64 305 2.6 6.1 0.00 0.00 0.00 56 1012.0
20260509221716 64 54 0.9 1.7 0.00 0.00 0.00 55 1012.0
20260509221213 65 350 0.9 3.5 0.00 0.00 0.00 54 1012.2
20260509220709 65 300 3.5 3.5 0.00 0.00 0.00 54 1012.0
20260509220206 65 126 1.7 2.6 0.00 0.00 0.00 54 1012.2
20260509215701 65 142 2.6 6.1 0.00 0.00 0.00 53 1012.2
20260509215158 65 275 0.9 2.6 0.00 0.00 0.00 53 1012.1
20260509214655 64 217 6.1 7.0 0.00 0.00 0.00 53 1012.1
20260509214152 64 318 0.0 0.0 0.00 0.00 0.00 54 1012.2
20260509213649 64 321 2.6 3.5 0.00 0.00 0.00 52 1011.9
20260509213144 64 91 0.0 3.5 0.00 0.00 0.00 52 1012.0
20260509212642 64 300 1.7 7.0 0.00 0.00 0.00 55 1012.2
20260509212139 65 8 0.9 6.1 0.00 0.00 0.00 51 1012.0
20260509211635 65 62 0.9 5.2 0.00 0.00 0.00 51 1012.2
20260509211132 65 321 1.7 3.5 0.00 0.00 0.00 50 1011.9
20260509210629 65 165 4.3 7.8 0.00 0.00 0.00 52 1011.9
20260509210121 64 305 1.7 3.5 0.00 0.00 0.00 54 1011.9
20260509205620 64 212 1.7 5.2 0.00 0.00 0.00 53 1011.8